{"data":{"norad_id":59269,"intl_designator":"2024-050R","name":"STARLINK-31609","alt_names":[],"object_type":"PAYLOAD","status":"ACTIVE","operator":null,"country":"US","launch_date":"2024-03-19","launch_site_code":"AFWTR","launch_vehicle":null,"mission":null,"orbit_class":"UNKNOWN","rcs_meters":null,"size_class":null,"mass_kg":null,"dimensions":null,"purposes":["comms"],"wikipedia_slug":null,"has_3d_model":false,"image_url":null,"decayed_at":null,"tle_current":{"epoch":"2026-09-21T11:51:34.082208Z","epoch_age_seconds":76413,"freshness":"FRESH","line1":"1 59269U 24050R   26264.49414447  .00000213  00000+0  17448-4 0  9992","line2":"2 59269  53.1639 348.9175 0001205  77.1176 282.9961 15.34393692140562","mean_motion":15.34393692,"eccentricity":0.0001205,"inclination_deg":53.1639,"raan_deg":348.9175,"arg_perigee_deg":77.1176,"mean_anomaly_deg":282.9961,"bstar":1.7448e-5,"rev_number":14056,"period_min":93.848143896045,"perigee_km":461.89766546851,"apogee_km":463.54631248486,"semimajor_km":6840.8589889767,"source":"CELESTRAK","updated_at":"2026-09-22T09:00:48.873484Z"}}}